Change the Weather History Date:

Tuesday, September 6, 2011

  Actual Average Record
Temperature  
Mean Temperature 84 °F 75 °F  
Max Temperature 98 °F 88 °F 111 °F (1955)
Min Temperature 70 °F 62 °F 47 °F (1942)
Degree Days  
Heating Degree Days 0 0  
Month to date heating degree days 0 0  
Since 1 July heating degree days 0 0  
Cooling Degree Days 19 10  
Month to date cooling degree days 69 60  
Year to date cooling degree days 946 942  
Growing Degree Days 34 (Base 50)    
Moisture  
Dew Point 55 °F    
Average Humidity 43    
Maximum Humidity 61    
Minimum Humidity 24    
Precipitation  
Precipitation 0.00 in 0.00 in 0.82 in (1976)
Month to date precipitation 0.00 0.01  
Year to date precipitation 9.15 12.65  
Since 1 July precipitation T 0.10  
Sea Level Pressure  
Sea Level Pressure 29.84 in    
Wind  
Wind Speed 4 mph (SSW)    
Max Wind Speed 13 mph    
Max Gust Speed 17 mph    
Visibility 10 miles    
Events      
T = Trace of Precipitation, MM = Missing Value Source: NWS Daily Summary

Daily Weather History Graph

Daily Weather History Graph

Search for Another Location

Airport or City:

Trip Planner

Search our weather history database for the weather conditions in past years. The results will help you decide how hot, cold, wet, or windy it might be!

Date:

Astronomy

Sep. 06, 2011 Rise Set
Actual Time 6:30 AM PDT 7:12 PM PDT
Civil Twilight 6:04 AM PDT 7:38 PM PDT
Nautical Twilight 5:34 AM PDT 8:08 PM PDT
Astronomical Twilight 5:04 AM PDT 8:38 PM PDT
Moon 3:40 PM PDT (9/6) 1:02 AM PDT (9/6)
Length of Visible Light 13h 33m
Length of Day
12h 42m
Waxing Gibbous, 71% of the Moon is Illuminated
Sep 6
Waxing Gibbous
Sep 12
Full
Sep 20
Last Quarter
Sep 27
New
Oct 3
First Quarter

Hourly Weather History & Observations

Time (PDT) Temp. Heat Index Dew Point Humidity Pressure Visibility Wind Dir Wind Speed Gust Speed Precip Events Conditions
12:53 AM 75.0 °F - 55.9 °F 51% 29.84 in 10.0 mi Calm Calm - N/A   Clear
1:53 AM 75.0 °F - 55.9 °F 51% 29.83 in 10.0 mi Calm Calm - N/A   Clear
2:53 AM 73.0 °F - 55.9 °F 55% 29.83 in 10.0 mi Calm Calm - N/A   Clear
3:53 AM 73.0 °F - 55.9 °F 55% 29.83 in 10.0 mi Calm Calm - N/A   Clear
4:53 AM 72.0 °F - 55.9 °F 57% 29.82 in 10.0 mi West 3.5 mph - N/A   Clear
5:53 AM 72.0 °F - 55.0 °F 55% 29.83 in 10.0 mi SE 3.5 mph - N/A   Clear
6:53 AM 70.0 °F - 55.9 °F 61% 29.84 in 10.0 mi Calm Calm - N/A   Clear
7:53 AM 75.0 °F - 55.0 °F 50% 29.86 in 10.0 mi Calm Calm - N/A   Clear
8:53 AM 80.1 °F 80.1 °F 55.0 °F 42% 29.87 in 10.0 mi Calm Calm - N/A   Clear
9:53 AM 86.0 °F 84.0 °F 53.1 °F 32% 29.87 in 10.0 mi SE 3.5 mph - N/A   Clear
10:53 AM 91.0 °F 88.5 °F 53.1 °F 27% 29.87 in 10.0 mi SE 3.5 mph - N/A   Clear
11:53 AM 93.9 °F 91.7 °F 54.0 °F 26% 29.86 in 10.0 mi ESE 9.2 mph - N/A   Clear
12:53 PM 96.1 °F 93.8 °F 54.0 °F 24% 29.85 in 10.0 mi Variable 6.9 mph 17.3 mph N/A   Clear
1:53 PM 98.1 °F 96.4 °F 55.0 °F 24% 29.83 in 10.0 mi SSW 8.1 mph - N/A   Clear
2:53 PM 97.0 °F 95.3 °F 55.9 °F 25% 29.81 in 10.0 mi South 9.2 mph - N/A   Clear
3:53 PM 96.1 °F 94.5 °F 55.9 °F 26% 29.80 in 10.0 mi SSW 8.1 mph - N/A   Clear
4:53 PM 96.1 °F 94.5 °F 55.9 °F 26% 29.80 in 10.0 mi South 5.8 mph - N/A   Clear
5:53 PM 93.9 °F 91.7 °F 54.0 °F 26% 29.80 in 10.0 mi SSW 5.8 mph - N/A   Clear
6:53 PM 93.0 °F 91.1 °F 55.0 °F 28% 29.81 in 10.0 mi South 4.6 mph - N/A   Clear
7:53 PM 91.0 °F 88.9 °F 55.0 °F 29% 29.82 in 10.0 mi West 4.6 mph - N/A   Clear
8:53 PM 89.1 °F 86.9 °F 54.0 °F 30% 29.84 in 10.0 mi WNW 3.5 mph - N/A   Clear
9:53 PM 86.0 °F 84.5 °F 55.0 °F 35% 29.85 in 10.0 mi WNW 3.5 mph - N/A   Clear
10:53 PM 84.0 °F 83.0 °F 55.9 °F 38% 29.85 in 10.0 mi WNW 4.6 mph - N/A   Clear
11:53 PM 84.0 °F 83.0 °F 55.9 °F 38% 29.86 in 10.0 mi East 3.5 mph - N/A   Clear